Weather History for Hilo, HI

Change the Weather History Date:

Friday, June 6, 2014

  Actual Average Record
Temperature  
Mean Temperature 74 °F 75 °F  
Max Temperature 80 °F 82 °F 88 °F (1968)
Min Temperature 68 °F 68 °F 64 °F (1998)
Degree Days  
Heating Degree Days 0 0  
Month to date heating degree days 0 0  
Since 1 June heating degree days 0 0  
Since 1 July heating degree days 0 0  
Cooling Degree Days 9 10  
Month to date cooling degree days 53 60  
Year to date cooling degree days 1309 1128  
Since 1 June cooling degree days 53 60  
Growing Degree Days 24 (Base 50)    
Moisture  
Dew Point 68 °F    
Average Humidity 84    
Maximum Humidity 100    
Minimum Humidity 67    
Precipitation  
Precipitation 0.28 in 0.22 in 0.90 in (1961)
Month to date precipitation 1.31 1.26  
Year to date precipitation 49.05 53.17  
Snow  
Snow 0.00 in - - ()
Month to date snowfall 0.0  
Since 1 June snowfall 0.0  
Since 1 July snowfall 0.0  
Snow Depth 0.00 in    
Sea Level Pressure  
Sea Level Pressure 30.03 in    
Wind  
Wind Speed 6 mph (West)    
Max Wind Speed 12 mph    
Max Gust Speed 16 mph    
Visibility 9 miles    
Events Rain    
T = Trace of Precipitation, MM = Missing Value Source: NWS Daily Summary

Daily Weather History Graph

Daily Weather History Graph

Search for Another Location

Airport:

Trip Planner

Search our weather history database for the weather conditions in past years. The results will help you decide how hot, cold, wet, or windy it might be!

Date:

Astronomy

Jun. 06, 2014 Rise Set
Actual Time 5:40 AM HST 6:57 PM HST
Civil Twilight 5:16 AM HST 7:21 PM HST
Nautical Twilight 4:47 AM HST 7:50 PM HST
Astronomical Twilight 4:17 AM HST 8:20 PM HST
Moon 1:12 PM HST (6/6) 12:48 AM HST (6/6)
Length of Visible Light 14h 05m
Length of Day
13h 16m
First Quarter, 60% of the Moon is Illuminated
Jun 6
First Quarter
Jun 12
Full
Jun 19
Last Quarter
Jun 26
New
Jul 5
First Quarter

Hourly Weather History & Observations

Time (HST) Temp. Dew Point Humidity Pressure Visibility Wind Dir Wind Speed Gust Speed Precip Events Conditions
12:38 AM 69.1 °F 69.1 °F 100% 30.03 in 10.0 mi South 9.2 mph - 0.00 in   Overcast
12:53 AM 70.0 °F 69.1 °F 97% 30.02 in 7.0 mi WSW 8.1 mph - 0.01 in Rain Light Rain
1:37 AM 70.0 °F 69.1 °F 97% 30.01 in 10.0 mi West 4.6 mph - 0.03 in Rain Light Rain
1:49 AM 69.8 °F 69.8 °F 100% 30.01 in 10.0 mi West 9.2 mph - 0.04 in Rain Light Rain
1:53 AM 70.0 °F 69.1 °F 97% 30.00 in 10.0 mi West 9.2 mph - 0.04 in   Overcast
2:14 AM 69.1 °F 69.1 °F 100% 30.01 in 3.0 mi West 8.1 mph - 0.04 in Rain Light Rain
2:27 AM 70.0 °F 68.0 °F 93% 30.00 in 10.0 mi WSW 8.1 mph - 0.04 in   Overcast
2:53 AM 69.1 °F 68.0 °F 96% 29.99 in 10.0 mi West 6.9 mph - 0.06 in Rain Light Rain
3:53 AM 69.1 °F 68.0 °F 96% 29.99 in 10.0 mi SW 3.5 mph - 0.00 in   Overcast
4:53 AM 69.1 °F 68.0 °F 96% 30.00 in 10.0 mi SW 5.8 mph - 0.06 in Rain Light Rain
5:43 AM 68.0 °F 66.9 °F 96% 30.02 in 10.0 mi WSW 4.6 mph - 0.09 in   Scattered Clouds
5:53 AM 68.0 °F 66.9 °F 96% 30.02 in 10.0 mi WSW 4.6 mph - 0.09 in   Mostly Cloudy
6:02 AM 68.0 °F 66.9 °F 96% 30.03 in 10.0 mi WSW 5.8 mph - N/A   Partly Cloudy
6:53 AM 69.1 °F 68.0 °F 96% 30.04 in 10.0 mi WSW 5.8 mph - N/A   Scattered Clouds
7:53 AM 73.9 °F 69.1 °F 85% 30.05 in 10.0 mi Calm Calm - 0.01 in   Overcast
8:20 AM 75.0 °F 68.0 °F 79% 30.05 in 10.0 mi NW 4.6 mph - N/A   Mostly Cloudy
8:53 AM 75.0 °F 70.0 °F 84% 30.05 in 8.0 mi NW 9.2 mph - 0.00 in Rain Light Rain
9:06 AM 73.9 °F 69.1 °F 85% 30.05 in 10.0 mi NNW 8.1 mph - 0.00 in   Overcast
9:25 AM 73.9 °F 69.1 °F 85% 30.06 in 10.0 mi Calm Calm - 0.00 in   Mostly Cloudy
9:53 AM 75.0 °F 70.0 °F 84% 30.05 in 10.0 mi West 6.9 mph - 0.00 in   Mostly Cloudy
10:17 AM 75.0 °F 68.0 °F 79% 30.05 in 10.0 mi NNW 5.8 mph - N/A   Overcast
10:53 AM 73.9 °F 69.1 °F 85% 30.05 in 7.0 mi West 4.6 mph - 0.00 in Rain Light Rain
11:06 AM 73.9 °F 69.1 °F 85% 30.05 in 10.0 mi WNW 5.8 mph - 0.01 in Rain Light Rain
11:53 AM 75.9 °F 68.0 °F 76% 30.04 in 10.0 mi NNW 6.9 mph - 0.01 in   Overcast
12:53 PM 77.0 °F 69.1 °F 76% 30.03 in 10.0 mi NNW 10.4 mph - 0.00 in   Mostly Cloudy
1:53 PM 77.0 °F 68.0 °F 74% 30.01 in 10.0 mi Variable 4.6 mph - N/A   Mostly Cloudy
2:53 PM 79.0 °F 66.0 °F 64% 30.01 in 10.0 mi Variable 6.9 mph - N/A   Mostly Cloudy
3:53 PM 79.0 °F 64.9 °F 62% 30.00 in 10.0 mi NE 8.1 mph - N/A   Mostly Cloudy
4:53 PM 77.0 °F 64.9 °F 66% 30.00 in 10.0 mi NE 5.8 mph - N/A   Mostly Cloudy
5:53 PM 78.1 °F 64.9 °F 64% 30.01 in 10.0 mi North 6.9 mph - N/A   Partly Cloudy
6:47 PM 71.6 °F 68.0 °F 88% 30.03 in 2.5 mi ENE 6.9 mph - 0.01 in Rain Heavy Rain
6:53 PM 72.0 °F 68.0 °F 87% 30.03 in 3.0 mi North 5.8 mph - 0.08 in Rain Rain
7:01 PM 72.0 °F 68.0 °F 87% 30.03 in 10.0 mi NNW 6.9 mph - 0.01 in Rain Light Rain
7:53 PM 70.0 °F 68.0 °F 93% 30.04 in 10.0 mi WSW 5.8 mph - 0.01 in   Mostly Cloudy
8:53 PM 69.1 °F 66.9 °F 93% 30.05 in 10.0 mi WSW 6.9 mph - N/A   Partly Cloudy
9:53 PM 69.1 °F 66.9 °F 93% 30.06 in 10.0 mi WSW 6.9 mph - 0.05 in   Scattered Clouds
10:53 PM 68.0 °F 66.0 °F 93% 30.06 in 10.0 mi WSW 6.9 mph - N/A   Clear
11:53 PM 68.0 °F 64.0 °F 87% 30.05 in 10.0 mi SW 6.9 mph - N/A   Mostly Cloudy